This is the latest recevied weather packets stored in our database for station/object K6CEG. If no packets are shown the sender has not sent any weather packets the latest 10 day(s).
| Time | Temp. | Humidity | Pressure | Rain* | Wind** | Luminosity | Snow |
|---|---|---|---|---|---|---|---|
| 1788210139 | 31.67° C | 41% | 1014.7 hPa | 0 mm | - | 623 W/m² | - |
| 1788209838 | 31.67° C | 42% | 1014.9 hPa | 0 mm | - | 463 W/m² | - |
| 1788209535 | 31.67° C | 43% | 1015.2 hPa | 0 mm | - | 402 W/m² | - |
| 1788209235 | 31.11° C | 43% | 1015.1 hPa | 0 mm | - | 477 W/m² | - |
| 1788208934 | 31.67° C | 42% | 1015.1 hPa | 0 mm | - | 632 W/m² | - |
| 1788208628 | 31.11° C | 44% | 1015.1 hPa | 0 mm | - | 619 W/m² | - |
| 1788208328 | 31.67° C | 44% | 1015.2 hPa | 0 mm | - | 646 W/m² | - |
| 1788208027 | 31.67° C | 45% | 1015.1 hPa | 0 mm | - | 666 W/m² | - |
| 1788207727 | 31.67° C | 45% | 1015.1 hPa | 0 mm | - | 664 W/m² | - |
| 1788207421 | 31.67° C | 45% | 1015.2 hPa | 0 mm | - | 655 W/m² | - |
| 1788207121 | 31.11° C | 46% | 1014.9 hPa | 0 mm | - | 646 W/m² | - |
| 1788206817 | 31.67° C | 46% | 1015.4 hPa | 0 mm | - | 684 W/m² | - |
| 1788206517 | 31.67° C | 45% | 1015.5 hPa | 0 mm | - | 647 W/m² | - |
| 1788206212 | 30° C | 47% | 1015.4 hPa | 0 mm | - | 642 W/m² | - |
| 1788205908 | 30.56° C | 47% | 1015.4 hPa | 0 mm | - | 636 W/m² | - |
| 1788205602 | 31.11° C | 47% | 1015.7 hPa | 0 mm | - | 653 W/m² | - |
| 1788205297 | 30° C | 47% | 1015.3 hPa | 0 mm | - | 675 W/m² | - |
| 1788204992 | 30° C | 47% | 1015.7 hPa | 0 mm | - | 656 W/m² | - |
| 1788204687 | 30.56° C | 46% | 1015.6 hPa | 0 mm | - | 675 W/m² | - |
| 1788204382 | 28.89° C | 49% | 1015.6 hPa | 0 mm | - | 676 W/m² | - |
| 1788204078 | 30.56° C | 48% | 1015.7 hPa | 0 mm | - | 709 W/m² | - |
| 1788203774 | 30° C | 47% | 1015.4 hPa | 0 mm | - | 734 W/m² | - |
| 1788203469 | 30° C | 50% | 1015.7 hPa | 0 mm | - | 751 W/m² | - |
| 1788203164 | 30° C | 48% | 1015.8 hPa | 0 mm | - | 773 W/m² | - |
| 1788202863 | 30° C | 48% | 1015.5 hPa | 0 mm | - | 761 W/m² | - |
* Rain latest hour (hover to see other rain measurements)
** Current wind speed in m/s (hover to see current wind gust speed)